"Pseudo-MPEC" for CAXJ8W2

Created 2024 Oct 4 21:22:05 UT using Find_Orb

Click here for an explanation of pseudo-MPECs

 
 Astrometry: 
     CAXJ8W2*1C2024 09 27.43169404 30 03.589+33 02 23.24   ~9RBb 22.37GVNEOCPG96
     CAXJ8W2 1C2024 09 27.43751304 30 03.568+33 02 18.35   ~9RBb 20.49GVNEOCPG96
     CAXJ8W2 1C2024 09 27.44334804 30 03.622+33 02 10.39   ~9RBb 22.04GVNEOCPG96
     CAXJ8W2 1C2024 09 27.44916404 30 03.780+33 02 03.05   ~9RBb 21.00GVNEOCPG96

Station data:
(G96) Mt. Lemmon Survey  (N32.442729 W110.788720)  US/Arizona.  Observer E.
   J. Christensen. 1.5-m reflector + 10K CCD.

Orbital elements:  CAXJ8W2
   Perihelion 2025 Mar 15.57846 +/- 125 TT = 13:52:59 (JD 2460750.07846)
Epoch 2024 Sep 27.0 TT = JDT 2460580.5   Earth MOID: 0.3687   Ma: 0.0203
M 203.15637195 +/- 110              (J2000 ecliptic)             AutoNEOCP
n   0.92490298 +/- 0.554            Peri.  340.30297 +/- 80
a   1.04329052 +/- 0.416            Node   219.55818 +/- 13
e   0.4329960 +/- 0.18              Incl.   37.88644 +/- 18
P   1.066/389.223d         H 19.96  G  0.15   U 12.4  SR
q 0.59154980 +/- 0.539    Q 1.49503123 +/- 2.05
From 4 observations 2024 Sept. 27 (25.2 min); mean residual 0".66
Residuals in arcseconds: 
240927 G96  .55+  .78-    240927 G96  .62-  .06+    
240927 G96  .51-  1.2+    240927 G96  .58+  .43-    

Ephemerides (geocentric):
Date (UTC) HH   RA             Dec           delta  r     elong  mag " sig PA
---- --------  ------------   ------------  ------ ------ -----  --- --------
2024 10 04 21  04 30 13.623   +30 10 04.03  .67235 1.4639 120.9 21.4 962'  51
2024 10 04 22  04 30 13.045   +30 08 56.53  .67186 1.4638 121.0 21.4 990'  52
2024 10 04 23  04 30 12.459   +30 07 48.90  .67138 1.4638 121.0 21.4  17d  52
2024 10 05 00  04 30 11.865   +30 06 41.15  .67090 1.4637 121.0 21.4  17d  52
2024 10 05 01  04 30 11.265   +30 05 33.29  .67042 1.4636 121.1 21.4  18d  53
2024 10 05 02  04 30 10.656   +30 04 25.30  .66994 1.4635 121.1 21.4  18d  53
2024 10 05 03  04 30 10.040   +30 03 17.19  .66945 1.4634 121.2 21.4  19d  54
2024 10 05 04  04 30 09.416   +30 02 08.97  .66897 1.4634 121.2 21.4  19d  54
2024 10 05 05  04 30 08.785   +30 01 00.62  .66849 1.4633 121.3 21.4  19d  55
2024 10 05 06  04 30 08.146   +29 59 52.15  .66801 1.4632 121.3 21.4  20d  55
2024 10 05 07  04 30 07.500   +29 58 43.56  .66753 1.4631 121.4 21.4  20d  56
2024 10 05 08  04 30 06.846   +29 57 34.85  .66705 1.4630 121.4 21.4  20d  56
2024 10 05 09  04 30 06.184   +29 56 26.02  .66657 1.4630 121.5 21.4  20d  57
2024 10 05 10  04 30 05.515   +29 55 17.06  .66609 1.4629 121.5 21.4  21d  57
2024 10 05 11  04 30 04.838   +29 54 07.99  .66560 1.4628 121.6 21.4  21d  58
2024 10 05 12  04 30 04.153   +29 52 58.79  .66512 1.4627 121.6 21.4  21d  58
2024 10 05 13  04 30 03.461   +29 51 49.47  .66464 1.4626 121.7 21.4  21d  58
2024 10 05 14  04 30 02.761   +29 50 40.03  .66416 1.4626 121.7 21.4  22d  59
2024 10 05 15  04 30 02.053   +29 49 30.46  .66368 1.4625 121.8 21.4  22d  59
2024 10 05 16  04 30 01.338   +29 48 20.77  .66320 1.4624 121.8 21.4  22d  59
2024 10 05 17  04 30 00.615   +29 47 10.96  .66272 1.4623 121.9 21.3  22d  60
2024 10 05 18  04 29 59.884   +29 46 01.03  .66225 1.4622 121.9 21.3  22d  60
2024 10 05 19  04 29 59.146   +29 44 50.97  .66177 1.4622 121.9 21.3  22d  60
2024 10 05 20  04 29 58.400   +29 43 40.78  .66129 1.4621 122.0 21.3  23d  61
2024 10 05 21  04 29 57.646   +29 42 30.48  .66081 1.4620 122.0 21.3  23d  61
2024 10 05 22  04 29 56.885   +29 41 20.05  .66033 1.4619 122.1 21.3  23d  61
2024 10 05 23  04 29 56.115   +29 40 09.49  .65985 1.4618 122.1 21.3  23d  61
2024 10 06 00  04 29 55.338   +29 38 58.81  .65937 1.4617 122.2 21.3  23d  62
2024 10 06 01  04 29 54.554   +29 37 48.00  .65889 1.4617 122.2 21.3  23d  62
2024 10 06 02  04 29 53.761   +29 36 37.07  .65842 1.4616 122.3 21.3  23d  62
2024 10 06 03  04 29 52.961   +29 35 26.02  .65794 1.4615 122.3 21.3  23d  62
2024 10 06 04  04 29 52.153   +29 34 14.83  .65746 1.4614 122.4 21.3  23d  62
2024 10 06 05  04 29 51.337   +29 33 03.52  .65698 1.4613 122.4 21.3  24d  63
2024 10 06 06  04 29 50.514   +29 31 52.09  .65650 1.4613 122.5 21.3  24d  63
2024 10 06 07  04 29 49.682   +29 30 40.53  .65603 1.4612 122.5 21.3  24d  63
2024 10 06 08  04 29 48.843   +29 29 28.84  .65555 1.4611 122.6 21.3  24d  63
2024 10 06 09  04 29 47.996   +29 28 17.03  .65507 1.4610 122.6 21.3  24d  63
2024 10 06 10  04 29 47.142   +29 27 05.09  .65460 1.4609 122.7 21.3  24d  63
2024 10 06 11  04 29 46.279   +29 25 53.02  .65412 1.4608 122.7 21.3  24d  63
2024 10 06 12  04 29 45.409   +29 24 40.82  .65364 1.4608 122.8 21.3  24d  64
2024 10 06 13  04 29 44.530   +29 23 28.50  .65317 1.4607 122.8 21.3  24d  64
2024 10 06 14  04 29 43.644   +29 22 16.05  .65269 1.4606 122.9 21.3  24d  64
2024 10 06 15  04 29 42.750   +29 21 03.47  .65221 1.4605 122.9 21.3  24d  64
2024 10 06 16  04 29 41.848   +29 19 50.76  .65174 1.4604 123.0 21.3  24d  64
2024 10 06 17  04 29 40.939   +29 18 37.92  .65126 1.4603 123.0 21.3  24d  64
2024 10 06 18  04 29 40.021   +29 17 24.95  .65079 1.4603 123.1 21.3  24d  64
2024 10 06 19  04 29 39.096   +29 16 11.86  .65031 1.4602 123.1 21.3  24d  64
2024 10 06 20  04 29 38.162   +29 14 58.63  .64984 1.4601 123.2 21.3  25d  65